Wind_Speed
53 53 54 56 57 58 59 59 59 59 60 62 63 64 65 65 66 66 66 66 66 65 65 64 64 64 64 64 64 63 62 62 61 60 59 59 60 61
54 56 58 59 60 61 61 61 61 61 61 61 63 63 64 64 64 64 64 63 62 62 62 62 62 62 61 61 60 58 57 56 55 55 54 54 54 55
59 60 60 61 61 61 61 61 61 61 61 61 62 62 62 62 61 61 61 60 60 60 60 59 59 58 57 56 55 54 52 51 50 49 50 50 50 51
61 61 61 61 61 61 60 60 60 60 60 59 59 60 60 59 59 58 58 58 57 57 56 56 55 54 53 51 50 49 48 48 47 47 47 47 47 47
62 62 62 61 61 60 60 59 59 58 58 57 57 57 57 57 56 56 55 55 54 53 52 51 50 49 47 45 44 43 43 44 43 43 43 44 44 45
61 61 61 61 60 59 58 58 57 56 56 55 55 55 55 54 53 52 51 50 49 48 46 45 43 41 40 39 38 38 39 39 40 40 40 41 41 41
60 60 59 58 58 57 56 55 54 54 54 53 52 51 50 49 48 47 45 43 41 40 38 37 36 36 35 35 35 36 36 37 37 37 37 37 37 38
57 56 55 54 54 53 53 52 51 50 49 48 47 45 44 43 41 39 37 34 32 32 31 31 32 32 32 32 33 34 34 34 34 34 34 35 35 35
53 52 50 49 48 48 47 47 46 45 43 41 39 37 35 34 32 30 29 26 25 25 26 27 28 29 29 29 30 30 30 30 31 31 32 32 32 33
47 46 45 44 44 42 41 40 39 36 33 30 29 28 26 25 24 22 21 21 22 22 22 23 25 26 27 27 27 27 27 27 27 28 28 28 28 29
41 40 38 37 36 34 32 30 28 26 24 22 20 19 19 17 16 16 17 18 19 20 20 21 22 23 25 25 25 25 25 25 25 25 25 25 25 25
34 32 30 28 26 24 22 20 19 17 16 14 14 13 12 12 13 14 15 16 17 18 19 19 20 21 22 24 23 23 23 23 22 22 22 21 21 21
26 24 22 19 18 16 14 13 12 11 10 9 9 10 10 11 12 13 14 15 15 16 17 17 18 19 20 20 21 21 21 20 19 19 18 18 17 16
18 16 14 12 10 10 9 8 7 7 7 7 8 9 10 11 12 12 13 14 14 15 16 17 17 18 19 19 20 20 20 19 18 17 16 14 13 12
10 9 7 6 6 6 6 6 6 6 6 7 8 9 10 11 12 12 13 14 14 15 16 16 17 18 18 18 19 19 19 18 17 16 14 12 11 9
5 4 4 5 5 5 6 6 6 6 7 8 9 10 12 13 13 14 14 14 15 15 16 16 17 17 18 19 19 18 18 17 17 15 13 12 10 8
5 5 6 7 7 7 8 8 8 8 9 10 11 12 13 14 15 15 16 16 16 16 16 16 16 17 17 18 19 18 18 18 16 15 14 12 10 8
8 9 9 9 9 9 9 9 10 10 11 12 13 14 15 16 16 17 17 17 16 16 16 15 16 16 17 17 18 18 18 18 16 15 14 13 11 9
10 10 10 10 10 9 10 10 11 11 12 13 15 15 16 17 17 18 18 17 16 16 15 15 16 17 17 17 17 18 19 18 18 17 16 15 13 11
11 11 10 10 10 10 10 11 11 13 14 15 16 17 17 18 18 18 18 17 16 16 16 16 15 16 16 17 17 18 19 19 19 19 18 17 16 15
11 11 11 11 11 10 11 11 12 13 15 16 17 17 18 18 18 18 18 17 16 16 16 16 16 17 18 18 18 18 19 20 21 21 20 20 19 18
11 11 11 11 11 11 11 12 13 14 15 16 17 18 18 18 19 19 18 17 16 16 17 17 17 18 18 18 18 19 19 20 22 22 21 22 21 20
11 11 11 12 12 12 12 13 14 15 16 17 18 18 18 18 18 19 18 18 17 16 16 17 17 18 18 19 19 19 20 20 21 21 21 21 21 21
Wind_Direction
288 288 288 287 287 287 287 286 285 285 284 284 284 284 284 283 283 283 284 284 284 284 284 284 284 284 283 283 283 282 280 279 277 276 274 272 269 266
289 288 288 288 288 288 288 287 286 285 285 284 284 284 284 284 284 285 285 285 285 285 285 285 285 285 285 284 284 283 282 281 279 277 274 272 270 267
289 289 289 289 289 288 287 286 285 285 285 285 285 285 285 285 285 285 285 285 286 286 286 286 286 286 286 285 285 284 283 282 279 277 274 272 270 267
290 289 289 289 288 288 287 286 286 286 286 285 285 285 285 285 286 286 286 287 287 287 287 287 287 287 287 287 286 285 283 281 279 277 275 272 270 267
290 289 289 289 289 288 287 287 286 286 286 286 286 286 286 286 286 287 287 287 287 288 288 288 288 288 288 287 286 285 284 282 280 279 276 273 271 268
289 289 289 289 288 288 287 287 287 287 287 287 287 287 287 287 287 287 287 288 288 289 289 289 289 288 288 288 287 286 285 284 282 279 277 274 272 269
290 289 289 288 288 287 287 287 287 287 287 288 288 288 287 288 288 288 288 288 289 289 290 290 291 291 291 290 290 289 288 286 283 280 277 275 272 269
289 289 289 289 289 288 287 287 287 288 288 289 288 288 288 288 289 288 289 289 289 290 291 293 294 294 294 294 293 292 291 289 286 282 279 276 273 269
290 290 289 289 290 290 289 289 289 290 289 289 289 288 288 288 289 289 290 290 290 292 295 297 298 299 299 299 298 296 295 293 290 286 283 279 274 270
291 291 290 290 291 291 291 291 292 292 291 290 290 290 289 290 291 291 292 295 298 300 301 303 304 305 306 306 305 302 300 298 296 293 288 282 276 271
291 292 292 292 293 294 295 294 294 294 293 293 293 294 295 297 297 298 300 303 306 308 310 311 311 313 314 314 313 310 307 304 301 298 293 287 280 273
293 293 294 295 296 298 299 299 299 300 300 301 303 304 305 307 309 310 311 312 314 314 315 317 318 319 319 320 320 319 316 313 309 304 299 293 285 276
295 296 297 300 302 304 306 308 311 314 317 320 322 321 320 321 321 321 321 321 320 320 321 322 324 325 326 326 327 328 326 323 319 316 310 302 291 280
299 302 304 308 312 318 323 328 333 337 341 344 343 341 337 333 331 330 331 330 330 330 330 331 332 333 334 334 334 334 334 333 330 327 323 316 305 291
309 314 319 328 339 349 355 359 2 6 7 5 2 357 351 347 345 342 340 339 338 338 338 339 339 340 340 341 342 341 340 339 339 338 335 331 325 312
342 354 7 18 28 33 34 34 32 28 23 17 10 3 358 355 353 351 349 347 344 344 344 344 344 345 346 349 350 350 349 348 348 350 351 350 347 337
44 50 57 64 68 64 56 49 43 37 29 20 12 7 5 2 0 358 355 351 350 350 351 351 351 351 354 357 358 359 359 360 1 5 8 8 7 3
67 73 75 76 72 65 56 48 40 34 26 20 16 13 10 7 5 4 2 359 357 358 358 359 0 1 3 5 8 9 10 12 15 17 18 20 21 24
76 77 76 74 69 60 53 46 39 35 31 26 21 17 13 11 9 8 7 6 6 7 8 10 11 11 13 14 17 19 21 24 27 29 30 32 34 38
77 75 72 68 62 56 51 45 42 37 31 26 22 18 16 14 14 13 13 14 15 16 18 19 20 22 24 26 27 28 30 34 36 38 39 42 43 49
75 71 67 62 57 53 48 43 38 33 28 24 21 19 18 18 18 18 18 20 21 23 25 26 27 29 32 35 36 37 38 41 43 43 45 47 50 55
71 66 61 57 53 50 44 39 35 31 27 24 22 21 22 22 23 23 24 25 26 28 31 33 35 37 38 40 41 42 43 44 45 47 50 51 55 60
65 60 56 54 52 47 42 38 34 31 28 26 25 25 26 26 27 28 29 30 32 34 36 38 39 40 41 43 44 45 46 47 49 52 55 56 60 64
Height
5763 5759 5755 5751 5747 5743 5740 5736 5733 5729 5724 5717 5712 5707 5702 5698 5694 5690 5685 5681 5677 5673 5668 5664 5660 5656 5652 5648 5644 5641 5638 5635 5633 5632 5631 5630 5630 5630
5747 5744 5740 5736 5731 5727 5723 5719 5715 5712 5708 5702 5695 5690 5685 5681 5677 5672 5668 5664 5660 5656 5651 5647 5643 5639 5635 5631 5627 5623 5620 5617 5615 5613 5612 5611 5611 5611
5732 5728 5724 5719 5715 5710 5706 5701 5697 5693 5690 5685 5679 5674 5669 5665 5660 5656 5652 5648 5643 5639 5635 5631 5626 5622 5618 5614 5611 5607 5604 5601 5599 5597 5595 5594 5594 5594
5716 5711 5707 5703 5698 5693 5689 5684 5680 5676 5673 5669 5663 5658 5653 5649 5645 5641 5636 5632 5628 5624 5619 5615 5611 5607 5603 5599 5596 5592 5589 5586 5584 5582 5580 5579 5578 5577
5700 5695 5690 5686 5681 5676 5672 5668 5663 5659 5655 5652 5648 5642 5638 5633 5630 5626 5622 5617 5613 5609 5605 5601 5597 5593 5589 5585 5582 5579 5575 5572 5570 5567 5565 5564 5563 5562
5683 5678 5673 5669 5664 5660 5655 5651 5647 5643 5639 5636 5632 5627 5623 5619 5615 5612 5608 5603 5599 5595 5592 5588 5585 5581 5577 5573 5570 5566 5563 5560 5557 5554 5552 5550 5549 5548
5666 5662 5657 5652 5647 5643 5639 5635 5631 5628 5624 5620 5617 5613 5609 5605 5602 5598 5595 5592 5587 5584 5581 5577 5574 5570 5566 5563 5559 5555 5551 5548 5544 5541 5539 5537 5536 5535
5650 5646 5641 5636 5632 5627 5624 5620 5617 5613 5610 5606 5603 5599 5596 5593 5590 5587 5584 5582 5578 5575 5572 5568 5565 5561 5557 5553 5549 5545 5541 5537 5533 5530 5527 5525 5523 5523
5636 5631 5626 5622 5618 5614 5610 5606 5603 5600 5598 5595 5592 5588 5586 5583 5581 5578 5575 5573 5571 5568 5565 5561 5556 5552 5548 5544 5540 5535 5531 5527 5523 5519 5516 5514 5512 5511
5622 5618 5614 5610 5606 5602 5599 5595 5592 5590 5587 5584 5582 5580 5578 5576 5573 5572 5569 5567 5564 5561 5558 5554 5550 5545 5541 5536 5532 5527 5523 5518 5514 5510 5507 5504 5502 5501
5611 5607 5603 5600 5596 5593 5590 5587 5584 5582 5580 5578 5576 5574 5572 5570 5568 5566 5564 5562 5559 5555 5552 5548 5544 5539 5534 5530 5525 5520 5515 5511 5506 5502 5499 5495 5493 5492
5601 5598 5594 5592 5589 5586 5584 5581 5579 5577 5575 5574 5572 5570 5568 5567 5565 5563 5560 5558 5554 5551 5548 5544 5540 5535 5530 5525 5520 5514 5509 5504 5500 5496 5492 5488 5486 5484
5593 5591 5588 5586 5584 5582 5580 5578 5576 5574 5573 5571 5570 5568 5566 5564 5562 5560 5557 5554 5551 5547 5544 5540 5536 5531 5526 5521 5516 5511 5505 5500 5495 5490 5486 5483 5480 5478
5588 5586 5584 5583 5581 5580 5578 5576 5575 5574 5572 5571 5569 5567 5565 5563 5560 5557 5554 5551 5548 5544 5540 5537 5533 5528 5523 5518 5513 5507 5502 5497 5492 5487 5483 5479 5476 5474
5585 5584 5583 5581 5580 5579 5578 5576 5575 5574 5572 5571 5569 5567 5564 5562 5559 5556 5552 5549 5545 5542 5538 5534 5530 5525 5521 5516 5510 5505 5500 5495 5490 5485 5480 5476 5473 5471
5584 5583 5582 5581 5580 5580 5579 5577 5576 5575 5573 5571 5569 5567 5564 5561 5558 5554 5551 5547 5543 5540 5536 5532 5528 5523 5519 5514 5508 5503 5498 5493 5488 5483 5479 5475 5472 5469
5585 5584 5584 5583 5582 5581 5580 5579 5578 5576 5574 5572 5570 5567 5564 5560 5557 5553 5549 5546 5542 5538 5534 5531 5527 5522 5518 5513 5508 5503 5498 5493 5488 5483 5479 5475 5472 5469
5587 5587 5586 5585 5584 5584 5582 5581 5579 5578 5575 5573 5570 5567 5564 5560 5557 5553 5549 5545 5541 5538 5534 5530 5526 5522 5518 5513 5509 5504 5499 5494 5489 5485 5480 5477 5474 5471
5590 5590 5589 5588 5587 5586 5585 5583 5581 5579 5577 5574 5571 5568 5564 5561 5557 5553 5549 5546 5542 5538 5534 5531 5527 5523 5519 5515 5510 5506 5501 5496 5491 5487 5483 5479 5476 5473
5594 5593 5592 5591 5590 5589 5587 5586 5583 5581 5579 5576 5572 5569 5565 5562 5558 5554 5550 5547 5543 5539 5536 5532 5529 5525 5521 5517 5512 5508 5504 5499 5495 5490 5486 5483 5479 5476
5598 5597 5596 5595 5593 5592 5590 5588 5586 5583 5580 5577 5574 5571 5567 5563 5560 5556 5552 5548 5545 5541 5538 5534 5531 5527 5523 5519 5515 5512 5507 5503 5499 5495 5491 5487 5484 5481
5602 5601 5599 5598 5596 5594 5593 5590 5588 5585 5582 5579 5576 5572 5569 5565 5562 5558 5554 5551 5547 5544 5540 5537 5533 5530 5526 5523 5519 5516 5512 5508 5504 5500 5496 5493 5490 5487
5606 5604 5603 5601 5599 5597 5595 5593 5590 5588 5585 5582 5578 5575 5571 5568 5564 5560 5557 5553 5550 5547 5543 5540 5537 5534 5530 5527 5523 5520 5516 5513 5510 5506 5503 5500 5496 5494